Location: Hackberry
(29.5783°N, 96.8797°W)
Time: 02:59:46
(UTC+00:00)

Explorer 11/Cluster Stage 4 - Pass Details

Date: 17 November 2024
Orbit: 464 x 1202 km, 28.8° (Epoch: 03 December)

Event Time Altitude Azimuth Distance (km) Brightness Sun altitude
Exits shadow 11:56:14 18° 270° (W) 1,634 7.6 -12.7°
Maximum altitude 11:59:48 68° 190° (S) 638 6.1 -12.0°
Drops below altitude 10° 12:03:49 10° 107° (ESE) 1,769 10.0 -11.2°
Sets 12:05:53 0° 105° (ESE) 2,589 11.6 -10.7°
